N1JFY Weather Reports


time (UTC)temp
F
wind
direction
speed
knots
gust
knots
rain 1hr
in
rain 24hr
in
rain mn
in
humidity
%
barometer
mb
20260507154543 52 360 6.1 10.4 0.00 1.44 0.62 65 1002.0
20260507153041 52 360 5.2 10.4 0.00 1.44 0.62 70 1002.1
20260507151538 51 336 7.8 11.3 0.01 1.44 0.62 70 1002.3
20260507150036 50 360 6.1 9.6 0.02 1.44 0.62 70 1002.2
20260507144547 49 360 2.6 9.6 0.03 1.44 0.62 76 1002.2
20260507143033 48 355 4.3 10.4 0.03 1.44 0.62 76 1002.3
20260507141531 48 360 7.0 11.3 0.03 1.43 0.61 80 1002.4
20260507140027 48 325 5.2 11.3 0.03 1.42 0.60 82 1002.7
20260507134529 46 360 6.1 9.6 0.03 1.41 0.59 83 1002.7
20260507133027 45 325 6.1 9.6 0.04 1.41 0.59 83 1002.8
20260507131525 45 326 6.1 8.7 0.05 1.40 0.57 84 1003.0
20260507130025 44 360 4.3 9.6 0.05 1.39 0.56 86 1003.0
20260507124524 44 360 7.0 9.6 0.05 1.38 0.56 86 1002.9
20260507123023 43 360 4.3 12.2 0.04 1.36 0.54 87 1003.3
20260507121522 43 360 7.8 11.3 0.04 1.35 0.53 88 1003.2
20260507120021 42 320 7.0 11.3 0.04 1.34 0.52 89 1003.0
20260507114521 42 360 6.1 13.0 0.04 1.33 0.51 88 1002.9
20260507113027 42 360 4.3 9.6 0.04 1.32 0.50 89 1002.9
20260507111533 42 360 4.3 8.7 0.05 1.31 0.49 89 1003.1
20260507110019 42 269 2.6 6.1 0.05 1.30 0.48 89 1003.1
20260507104520 41 278 3.5 9.6 0.05 1.29 0.47 90 1003.1
20260507103016 41 360 4.3 8.7 0.04 1.27 0.45 90 1002.8
20260507101514 41 326 3.5 10.4 0.05 1.26 0.44 91 1002.3
20260507100018 41 360 3.5 9.6 0.05 1.25 0.43 90 1002.1
20260507094512 41 360 5.2 8.7 0.06 1.25 0.42 91 1002.1
20260507093019 41 360 5.2 9.6 0.05 1.23 0.40 90 1002.3
20260507091510 42 360 7.8 16.5 0.06 1.22 0.39 90 1002.1
20260507090017 42 326 8.7 14.8 0.07 1.21 0.38 89 1002.3
20260507084504 42 360 5.2 16.5 0.06 1.19 0.36 90 1002.2
20260507083002 43 360 7.8 13.9 0.07 1.18 0.35 90 1001.8
20260507081602 43 286 7.8 12.2 0.07 1.15 0.33 92 1001.8
20260507080059 44 329 4.3 7.8 0.07 1.13 0.31 92 1001.6
20260507074558 44 360 3.5 9.6 0.07 1.12 0.30 92 1002.0
20260507073102 44 360 0.0 3.5 0.07 1.11 0.28 93 1001.9
20260507073002 44 360 0.0 4.3 0.07 1.11 0.28 93 1001.9
20260507071557 44 360 5.2 13.0 0.07 1.09 0.26 92 1001.6
20260507070059 44 325 6.1 10.4 0.07 1.07 0.24 93 1001.4
20260507064505 44 360 7.0 11.3 0.07 1.05 0.22 93 1000.8
20260507063053 45 339 5.2 10.4 0.08 1.04 0.21 93 1000.9
20260507061552 45 360 6.1 14.8 0.08 1.02 0.19 93 1001.3
20260507060056 45 320 9.6 12.2 0.08 1.00 0.17 93 1001.3
20260507054551 45 325 8.7 17.4 0.09 0.98 0.15 93 1001.3
20260507053053 45 360 11.3 17.4 0.09 0.96 0.13 93 1001.3
20260507051548 45 360 12.2 18.2 0.09 0.94 0.11 94 1001.2
20260507050046 46 360 13.9 20.0 0.09 0.92 0.09 94 1001.2
20260507044555 46 360 7.0 14.8 0.08 0.89 0.06 94 1001.3
20260507043038 46 326 6.1 9.6 0.08 0.87 0.04 94 1000.8
20260507041535 47 340 4.3 7.8 0.08 0.85 0.02 94 1000.9
20260507040034 47 36 2.6 7.0 0.08 0.83 0.00 94 1000.8
20260507034534 49 325 2.6 7.0 0.08 0.81 0.81 93 1000.9
20260507033028 52 193 0.0 0.0 0.08 0.79 0.79 95 1001.2
20260507031523 52 193 0.0 0.0 0.07 0.76 0.76 95 1001.5
20260507030028 52 185 0.0 3.5 0.07 0.74 0.74 95 1001.8
20260507024520 52 207 0.0 7.0 0.07 0.73 0.72 94 1002.1
20260507023020 52 195 4.3 10.4 0.08 0.72 0.71 94 1002.3
20260507021520 52 167 3.5 11.3 0.08 0.70 0.69 94 1002.5
20260507020015 52 221 7.0 11.3 0.08 0.68 0.67 94 1002.8
20260507014513 52 192 4.3 10.4 0.09 0.69 0.65 94 1003.1
20260507013010 53 205 6.1 14.8 0.09 0.67 0.63 94 1003.4
20260507011509 53 176 4.3 12.2 0.09 0.65 0.61 94 1003.4
20260507010008 53 173 5.2 8.7 0.10 0.63 0.59 95 1003.6
20260507004508 52 166 4.3 9.6 0.09 0.63 0.56 95 1003.6
20260507003006 53 186 2.6 10.4 0.09 0.61 0.54 94 1003.7
20260507001510 53 160 5.2 13.0 0.09 0.57 0.51 94 1003.7
20260507000010 53 195 6.1 11.3 0.09 0.56 0.49 95 1003.9
20260506234504 52 200 0.9 7.8 0.09 0.54 0.47 94 1004.1
20260506233105 52 202 4.3 9.6 0.09 0.52 0.45 94 1004.1
20260506233001 52 208 2.6 7.0 0.10 0.52 0.45 94 1004.1
20260506231600 52 217 4.3 10.4 0.09 0.49 0.42 94 1004.2
20260506230100 53 173 5.2 12.2 0.09 0.47 0.40 94 1004.0
20260506224607 53 182 4.3 10.4 0.10 0.45 0.38 94 1004.0
20260506223058 53 175 5.2 11.3 0.10 0.43 0.36 94 1004.1
20260506221557 53 181 4.3 10.4 0.10 0.40 0.33 94 1004.1
20260506220059 53 188 6.1 14.8 0.10 0.38 0.31 94 1004.1
20260506214609 53 201 5.2 12.2 0.09 0.35 0.28 94 1004.1
20260506213055 53 182 6.1 13.0 0.09 0.33 0.26 94 1004.1
20260506211554 53 184 6.1 10.4 0.08 0.30 0.23 94 1004.4
20260506210054 53 139 4.3 11.3 0.07 0.28 0.21 94 1004.3
20260506204602 53 194 6.1 11.3 0.07 0.26 0.19 94 1004.5
20260506203052 54 149 3.5 7.8 0.06 0.24 0.17 94 1004.5
20260506201551 54 166 0.9 7.0 0.05 0.22 0.15 94 1004.4
20260506200048 54 182 4.3 8.7 0.06 0.21 0.14 93 1004.8
20260506194559 54 173 0.0 7.0 0.04 0.19 0.12 93 1004.8
20260506193049 54 168 3.5 5.2 0.04 0.18 0.11 93 1005.3
20260506191545 54 181 3.5 8.7 0.03 0.17 0.10 93 1005.2
20260506190045 54 198 4.3 10.4 0.02 0.15 0.08 93 1005.0
20260506184544 54 163 0.0 5.2 0.04 0.15 0.08 93 1005.0
20260506183046 53 133 0.0 4.3 0.04 0.14 0.07 93 1005.2
20260506181547 53 136 0.0 2.6 0.05 0.14 0.07 93 1005.6
20260506180049 53 178 0.0 0.0 0.04 0.13 0.06 92 1006.1
20260506174542 53 164 0.9 3.5 0.03 0.11 0.04 92 1006.4
20260506173042 53 165 0.0 3.5 0.02 0.10 0.03 91 1006.4
20260506171552 53 147 0.0 0.0 0.01 0.09 0.02 89 1006.6
20260506170043 54 141 0.0 2.6 0.01 0.09 0.02 88 1006.9
20260506164541 53 169 0.0 1.7 0.00 0.08 0.01 87 1007.1
20260506163044 53 175 0.0 8.7 0.00 0.08 0.01 87 1007.3
20260506161540 53 98 0.0 0.9 0.00 0.08 0.01 89 1007.0
20260506160041 52 113 1.7 7.0 0.00 0.08 0.01 89 1007.0